sat.trackr.live / text

‹ back to catalog

STARLINK-38064

NORAD 69988 · 2026-159P

PAYLOAD ACTIVE UNKNOWN

§ Identity

Operator
Country
US
Launch date
2026-07-11
Launch site
AFWTR
Launch vehicle
Mass (kg)
RCS (m²)

Purposes: comms

External: N2YO · Heavens-Above · Gunter

§ Orbital elements

Epoch: 2026-09-20T00:00:02.998944Z

Period
92.95 min
Inclination
97.2846°
Eccentricity
0.0001504
Mean motion
15.49148527 rev/d
Perigee alt
418.2 km
Apogee alt
420.2 km
Semi-major
6,797.4 km
B*
1.7510e-3
RAAN
104.8251°
Arg perigee
96.1742°
Mean anomaly
153.2675°
Rev number
602

§ Raw data

STARLINK-380641 69988U 26159P   26263.00003471  .00096178  00000+0  17510-2 0  99932 69988  97.2846 104.8251 0001504  96.1742 153.2675 15.49148527  6021

JSON: /api/v1/satellites/69988 · /tle

For live sub-satellite position, see the globe view (requires WebGL).

§ Visibility from observer

Set your observer location to see the next 7 days of passes ≥ 10°. The values pass through the URL so the page stays shareable.

No JS? Fill the form by hand. The geolocation button needs JavaScript.